ONEWEB-0049, 45154

Orbit data source: Space-Track

ONEWEB-0049, 45154 is a payload satellite owned by One Web (UK) in LEO that was launched on Thu, 06 Feb 2020 UTC via a SOYUZ-2-1B launch vehicle from the Tyuratam Missile And Space Complex (TTMTR). Payload-class satellites include a variety of spacecraft equipped with specific instruments for various scientific and technological missions. These include communications satellites like Starlink; space stations such as the ISS; scientific satellites like the Hubble; Earth observation satellites from companies like Planet Labs, Umbra, and HawkEye 360; GPS; miniature CubeSats for education and research; and military/defense satellites.

Loading next visibility...
Identifier
45154, 2020-008Z
Orbit
LEO
Country
Flag of UKUK
Related business
Manufacturer
One Web
Mission
Operational Commercial Communications
Bus & Motor
ARROW, Unknown motor
Mass
148 kg wet, ~140 kg dry
Launch date (UTC)
Icon of a cake. It is the launch day of the satellite!2020-02-06 (6 years ago)
Launch vehicle
SOYUZ-2-1B
Launch site
Tyuratam Missile And Space Complex (TTMTR)
Object type
Payload
Rocket body
Debris
Shape & HBR
Trap Box + 2 Pan, 6.7 m
Radar Cross Section
3.464 m², Large (>1 m²)

Expand to show TLE details & history
Last TLE update: 6 hours ago

TLE from 6 hours ago
0 ONEWEB-0049
1 45154U 20008Z   26037.49964897  .00000245  00000-0  66605-3 0  9990
2 45154  87.8755  62.3210 0002265  87.3845 272.7542 13.10375959290918
Epoch: 2026-02-06T11:59Z
TLE epoch observation values (Epoch: 2026-02-06T11:59:29.671Z)
Latitude
0.00005°
Longitude
105.81073°
Altitude
1,224.51 km
Speed
7.242 km/s
True Right ascension
04h 09m 17s
True Declination
0° 00' 00"
Sunlit
Object was in daylight at epoch
Visualization orbit readout
Latitude
Unknown
Longitude
Unknown
Altitude
Unknown
Speed
Unknown
Apparent Right ascension
Unknown
Apparent Declination
Unknown
Sunlit
N/A
Visualization observer readout
Local Sidereal Time
19:45:15
Azimuth
Unknown
Elevation
Unknown
Doppler factor
Unknown
Orbital elements
Apogee altitude
1,220.546 km
Perigee altitude
1,217.104 km
Semi-major axis
7,596.962 km
Eccentricity
0.00023
Inclination
87.8755°
RAAN
62.321°
Arg. of periapsis
87.3845°
True anomaly
272.72827°
Mean anomaly
272.7542°
Eccentric anomaly
272.74124°
Mean motion
3.27781 °/min
Orbital period
109.83 mins
BSTAR
0.00066605
Loading maneuver chart data...
Computing Atmospheric mass density...
Loading historical data...
Loading historical data...
Loading historical data...
Loading historical data...
Loading historical data...
Loading historical data...
Loading historical data...

Documentation

Showing up to 5 results
|